Regional Weather Roundup
Issued by NWS

Home | Current Version | Previous Version | Graphics & Text | Print | Product List | Glossary On
Versions: 1 2 3 4 5 6 7 8 9 10 11 12 13 14 15 16 17 18 19 20 21 22 23 24 25 26 27 28 29 30 31 32 33 34 35 36 37 38 39 40 41 42 43 44 45 46 47 48 49 50
264
ASUS44 KMEG 301900
RWRTN
TENNESSEE HOURLY STATE WEATHER ROUNDUP
NATIONAL WEATHER SERVICE MEMPHIS TN
200 PM CDT THU MAR 30 2017

TNZ002-004-019-021-049-052-054-088>092-302000-
WEST TENNESSEE

CITY           SKY/WX    TMP DP  RH WIND       PRES   REMARKS
MEMPHIS INTL   LGT RAIN  69  61  75 SW10G33   29.64S
NWS MEMPHIS      N/A     68 N/A N/A MISG        N/A
JACKSON        CLOUDY    73  58  59 S23G31    29.66S
DYERSBURG      LGT RAIN  73  58  59 S16G26    29.59F
PARIS          MOSUNNY   72  55  56 S16       29.64R
$$

TNZ008-025-027-028-033-062-065-066-302000-
NORTH MIDDLE TENNESSEE

CITY           SKY/WX    TMP DP  RH WIND       PRES   REMARKS
NASHVILLE      CLOUDY    77  56  48 S18G32    29.70F
CLARKSVILLE    PTSUNNY   75  50  41 SW22G35   29.64S
SMYRNA         PTSUNNY   77  58  51 S17G28    29.70F
CROSSVILLE     MOSUNNY   74  46  36 S15G33    29.79F
$$

TNZ061-075-076-078-094-096-097-302000-
SOUTH MIDDLE TENNESSEE

CITY           SKY/WX    TMP DP  RH WIND       PRES   REMARKS
TULLAHOMA      SUNNY     75  54  46 S16       29.75F
WINCHESTER     MOSUNNY   75  57  53 S17G30    29.76F
MCMINNVILLE    SUNNY     79  55  44 S16       29.74S
COLUMBIA       PTSUNNY   73  57  56 S22       29.69F
SHELBYVILLE    SUNNY     75  61  60 S21       29.73F
$$

TNZ017-018-042-046-047-302000-
NORTHEAST TENNESSEE

CITY           SKY/WX    TMP DP  RH WIND       PRES   REMARKS
TRI CITIES     CLOUDY    71  55  56 SE12      29.89F
$$

TNZ012-013-036-069-073-074-302000-
CENTRAL EAST TENNESSEE

CITY           SKY/WX    TMP DP  RH WIND       PRES   REMARKS
KNOXVILLE      CLOUDY    78  52  40 S14G22    29.78F
OAK RIDGE      MOSUNNY   79  50  36 S14G23    29.79F
GATLINBURG     MOSUNNY   77  48  36 S14       29.80F
$$

TNZ083-085-099-302000-
SOUTHEAST TENNESSEE

CITY           SKY/WX    TMP DP  RH WIND       PRES   REMARKS
CHATTANOOGA    CLOUDY    80  49  33 S20       29.79F
$$

SKY/WX REPORTED AS FAIR MEANS FEW OR NO CLOUDS BELOW
12 THOUSAND FEET.





USA.gov is the U.S. government's official web portal to all federal, state and local government web resources and services.